#timestamp,LO_Frequency,Hit,StdDev 
1546495215.9,286046998.3,N
1546495235.7,286047000.7,N
1546495255.6,286046999.9,N
1546495275.4,286047000.4,N
1546495295.3,286047002.5,N
1546495315.1,286047000.8,N
1546495335.8,286047000.7,N
1546495355.7,286046999.3,N
1546495375.5,286046998.9,N
1546495395.4,286046998.4,N
1546495415.2,286046998.8,N
1546495435.0,286046999.0,N
1546495435.9,286046999.0,N
1546495455.8,286047000.5,N
1546495475.6,286046999.3,N
1546495495.5,286046997.0,N
1546495515.3,286046999.5,N
1546495535.1,286047001.2,N
1546495555.9,286046998.7,N
1546495575.7,286047000.7,N
1546495595.6,286047001.0,N
1546495615.4,286046998.2,N
1546495635.2,286046998.7,N
1546495655.1,286046998.1,N
1546495656.0,286046998.1,N
1546495675.8,286046998.3,N
1546495695.6,286047001.1,N
1546495715.5,286047000.1,N
1546495735.3,286047002.1,N
1546495755.2,286046999.8,N
1546495775.9,286046999.7,N
1546495795.7,286047001.8,N
1546495815.6,286047001.6,N
1546495835.4,286046999.8,N
1546495855.2,286047000.3,N
1546495875.1,286047000.8,N
1546495876.0,286047000.8,N
1546495895.8,286046998.1,N
1546495915.7,286046998.4,N
1546495935.5,286046998.6,N
1546495955.3,286047000.7,N
1546495975.2,286047000.3,N
1546495995.0,286047000.9,N
1546495995.9,286047000.9,N
1546496015.8,286047000.9,N
1546496035.6,286046999.0,N
1546496055.4,286046998.3,N
1546496075.3,286047002.2,N
1546496095.1,286047000.0,N
1546496115.8,286046998.5,N
1546496135.7,286046998.4,N
1546496155.5,286046998.4,N
1546496175.4,286047000.4,N
1546496195.2,286046999.7,N
1546496215.0,286047000.6,N
1546496215.9,286047000.6,N
1546496235.8,286047001.1,N
1546496255.6,286047000.8,N
1546496275.4,286047000.8,N
1546496295.3,286046998.3,N
1546496315.1,286047000.8,N
1546496335.9,286046999.2,N
1546496355.7,286046996.9,N
1546496375.5,286046998.3,N
1546496395.4,286047000.8,N
1546496415.2,286046999.0,N
1546496435.0,286047001.2,N
1546496435.9,286047001.2,N
1546496455.8,286046999.7,N
1546496475.6,286046999.9,N
1546496495.5,286047000.7,N
1546496515.3,286046998.4,N
1546496535.1,286047001.2,N
1546496555.9,286047001.2,N
1546496575.7,286047001.2,N
1546496595.5,286047000.7,N
1546496615.4,286047000.8,N
1546496635.2,286047000.9,N
1546496655.1,286046998.6,N
1546496656.0,286046998.6,N
1546496675.8,286046999.0,N
1546496695.6,286047002.4,N
1546496715.5,286047000.0,N
1546496735.3,286047002.6,N
1546496755.2,286047002.1,N
1546496775.9,286047001.0,N
1546496795.7,286047000.5,N
1546496815.6,286047002.0,N
1546496835.4,286046999.7,N
1546496855.2,286047002.2,N
1546496875.1,286047001.7,N
1546496876.0,286047001.7,N
1546496895.8,286047001.7,N
1546496915.7,286047002.8,N
1546496935.5,286047000.3,N
1546496955.3,286047002.1,N
1546496975.2,286047001.5,N
1546496995.0,286047001.6,N
1546496995.9,286047001.6,N
1546497015.8,286047001.6,N
1546497035.6,286047001.9,N
1546497055.4,286047000.3,N
1546497075.3,286046999.7,N
1546497095.1,286046999.9,N
1546497115.8,286047000.7,N
1546497135.7,286046998.4,N
1546497155.5,286047000.9,N
1546497175.4,286047002.7,N
1546497195.2,286046999.9,N
1546497215.0,286047002.8,N
1546497215.9,286047002.8,N
1546497235.8,286047000.4,N
1546497255.6,286046998.8,N
1546497275.5,286046998.6,N
1546497295.3,286047000.4,N
1546497315.1,286047000.5,N
1546497335.9,286047000.9,N
1546497355.7,286046999.9,N
1546497375.6,286047000.9,N
1546497395.4,286047000.2,N
1546497415.2,286047001.0,N
1546497435.1,286047000.6,N
1546497436.0,286047000.6,N
1546497455.8,286047001.0,N
1546497475.6,286047001.0,N
1546497495.5,286047000.5,N
1546497515.3,286046999.7,N
1546497535.2,286047001.8,N
1546497555.9,286047003.9,Y
1546497575.7,286047001.8,P
1546497595.6,286047001.3,N
1546497615.4,286047001.5,P
1546497635.2,286047004.2,Y
1546497655.1,286047002.6,P
1546497656.0,286047002.6,P
1546497675.8,286047002.8,P
1546497695.7,286047000.3,N
1546497715.5,286047001.1,N
1546497735.3,286047000.8,N
1546497755.2,286047001.0,N
1546497775.0,286047001.1,N
1546497775.9,286047001.1,N
1546497795.7,286046998.6,N
1546497815.6,286047000.6,N
1546497835.4,286047000.2,N
1546497855.3,286047001.2,N
1546497875.1,286046998.1,N
1546497906.0,286047000.1,E
1546497915.0,286047000.3,N
1546497916.0,286047000.3,P
1546497935.8,286046999.7,P
1546497955.6,286047000.1,N
1546497975.5,286047000.1,N
1546497995.3,286047002.8,Y
1546498015.1,286046999.7,P
1546498035.9,286047000.1,N
1546498055.7,286047000.4,N
1546498075.6,286047002.1,Y
1546498095.4,286047002.3,P
1546498115.2,286047002.4,N
1546498135.1,286047001.8,N
1546498136.0,286047001.8,N
1546498155.8,286047001.8,N
1546498175.6,286047001.3,N
1546498195.5,286047002.6,Y
1546498215.3,286047000.3,P
1546498235.2,286047002.4,P
1546498255.9,286047002.3,N
1546498275.7,286047000.3,N
1546498295.6,286047001.2,N
1546498315.4,286046998.3,N
1546498335.3,286046998.5,N
1546498355.1,286046996.5,N
1546498356.0,286046996.5,N
1546498375.8,286046996.8,N
1546498395.7,286046997.5,N
1546498415.5,286046996.8,N
1546498435.3,286046996.7,N
1546498455.2,286046999.5,N
1546498475.9,286046997.7,N
1546498495.7,286046995.3,N
1546498515.6,286046995.7,N
1546498535.4,286046997.6,N
1546498555.2,286046996.8,N
1546498575.1,286046999.2,N
1546498576.0,286046999.2,N
1546498595.8,286046999.6,N
1546498615.6,286046999.4,N
1546498635.5,286046999.5,N
1546498655.3,286046996.8,N
1546498675.2,286046996.5,N
1546498695.9,286046997.7,N
1546498715.7,286046997.4,N
1546498735.6,286046997.5,N
1546498755.4,286046997.6,N
1546498775.2,286046994.9,N
1546498795.1,286046998.0,N
1546498796.0,286046998.0,N
